Location: Huntsville
(41.2590°N, 111.7678°W)
Time: 04:18:22
(UTC+00:00)

A-11 Canister half - Visible Passes

Search period start: 25 September 2022 00:00
Search period end: 05 October 2022 00:00
Orbit: 1524 x 1684 km, 47.3° (Epoch: 24 September)

Date Brightness Start Highest point End Pass type
(mag) Time Alt. Az. Time Alt. Az. Time Alt. Az.
25 Sep 9.2 02:25:47 10° W 02:35:10 69° NNW 02:44:16 12° ENE visible
25 Sep 9.1 04:31:44 10° WNW 04:41:14 64° N 04:42:32 60° NE visible
25 Sep 10.3 06:37:03 10° WNW 06:40:48 28° WNW 06:40:48 28° WNW visible
26 Sep 9.3 02:04:04 10° W 02:13:26 70° NNW 02:23:07 10° ENE visible
26 Sep 9.2 04:10:01 10° WNW 04:19:29 64° N 04:21:44 52° ENE visible
26 Sep 10.1 06:15:21 10° WNW 06:20:00 34° WNW 06:20:00 34° WNW visible
27 Sep 9.3 01:42:22 10° WSW 01:51:43 71° NNW 02:01:22 10° ENE visible
27 Sep 9.2 03:48:19 10° WNW 03:57:45 63° N 04:00:56 44° ENE visible
27 Sep 9.9 05:53:40 10° WNW 05:59:13 41° WNW 05:59:13 41° WNW visible
28 Sep 9.2 03:26:36 10° WNW 03:36:00 62° N 03:40:10 37° ENE visible
28 Sep 9.6 05:31:59 10° WNW 05:38:26 49° WNW 05:38:26 49° WNW visible
29 Sep 9.2 03:04:53 10° WNW 03:14:15 62° N 03:19:24 31° ENE visible
29 Sep 9.3 05:10:17 10° WNW 05:17:40 60° WNW 05:17:40 60° WNW visible
29 Sep 11.1 07:15:54 10° WNW 07:15:57 10° WNW 07:15:57 10° WNW visible
30 Sep 9.3 02:43:10 10° WNW 02:52:30 61° N 02:58:39 25° ENE visible
30 Sep 9.1 04:48:36 10° WNW 04:56:56 72° WNW 04:56:56 72° WNW visible
30 Sep 11.0 06:54:08 10° WNW 06:55:13 14° WNW 06:55:13 14° WNW visible
01 Oct 9.3 02:21:27 10° WNW 02:30:46 61° N 02:37:56 20° ENE visible
01 Oct 8.9 04:26:55 10° WNW 04:36:13 86° NW 04:36:13 86° NW visible
01 Oct 10.8 06:32:23 10° WNW 06:34:30 18° WNW 06:34:30 18° WNW visible
02 Oct 9.3 01:59:44 10° WNW 02:09:01 61° N 02:17:16 15° E visible
02 Oct 8.8 04:05:14 10° WNW 04:14:48 87° NNE 04:15:32 79° E visible
02 Oct 10.6 06:10:38 10° WNW 06:13:49 22° W 06:13:49 22° W visible
03 Oct 9.3 01:38:01 10° W 01:47:16 61° N 01:56:36 11° E visible
03 Oct 8.9 03:43:33 10° WNW 03:53:05 85° NNE 03:54:53 65° ESE visible
03 Oct 10.4 05:48:53 10° WNW 05:53:10 27° W 05:53:10 27° W visible
04 Oct 9.3 01:16:18 10° W 01:25:32 61° N 01:35:03 10° E visible
04 Oct 8.9 03:21:51 10° WNW 03:31:23 82° NNE 03:34:15 52° ESE visible
04 Oct 10.1 05:27:09 10° WNW 05:32:33 33° W 05:32:33 33° W visible
